FLOCK 3P-32 (42023 NORAD) Tracking and Keplerian Element Data

This shows tracking and keplerian element data for the satellite.

Feedback or suggestion? Click here.




ElementValue
Catalog42023
NameFLOCK 3P-32
Epoch Orbit5540
Epoch Day45.37394516
Epoch Year2018
RAAN110.9067
Inclination97.466
Eccentricity0.0009487
Argument of Perigee69.5582
Mean Anonmoly290.6673
Mean Motion15.2391257
Decay Rate1.495E-05
L11 42023U 17008CD 18045.37394516 .00001495 00000-0 64811-4 0 9996
L22 42023 97.4660 110.9067 0009487 69.5582 290.6673 15.23912570 55404

Live tracking and technical data element details for FLOCK 3P-32 (NORAD 42023). FLOCK 3P-32 can be tracked NOW for your location showing map with azimuth and elevation plus other details from your city location.

Track the satellite on the map from your city or location and see movement details for azimuth, elevation, latitude, longitude, range, height, and movement on the map or in text.







IsCatalogInMostPopularTable: catalog: 42023, numindb: 147
Update: records affected: 1



GetName: 42023 FLOCK 3P-32

Hit Count: updated at: Wed, 14 Nov 2018 11:56:41 GMT